Flag for Russia Weather past 2 weeks in Samara, Russia

Now
57 °F

Sunny.


Feels Like: 57 °F
Forecast: 45 / 62 °F
Wind: 1 mph from Southeast

Location: Samara


UV Index: 0 (Low)

Visibility: 10 mi


Pressure: 30.24 "Hg

Humidity: 36%

Dew point: 30 °F

Location of SamaraLocation

Historic Weather in Samara

°F

Samara temperature yesterday

Maximum temperature yesterday: 50 °F (at 5:30 PM)
Minimum temperature yesterday: 37 °F (at 12:30 AM)
Average temperature yesterday: 45 °F

Past Weeks' High & Low Weather Summary

 TemperatureHumidityPressure
High59 °F (Apr 16, 4:30 PM)100% (Apr 2, 5:30 AM)30.60 "Hg (Apr 2, 5:30 AM)
Low18 °F (Apr 3, 4:00 AM)19% (Apr 12, 3:30 PM)29.42 "Hg (Apr 1, 11:00 PM)
Average35 °F59%29.99 "Hg
* Reported Apr 1 6:00 PM — Apr 16 6:00 PM, Samara, Weather by CustomWeather, © 2014

Note: Actual official high and low records may vary slightly from our data, if they occured in-between our weather recording intervals... More about our weather records

Advertising

Historic Weather Conditions — Data for Previous 24 hours

 ConditionsComfort  
Time TempWeatherWind HumidityBarometerVisibility
6:00 PM
Apr 16
59 °FPassing clouds.3 mph34%30.24 "HgN/A
5:00 PM59 °FPassing clouds.8 mph31%30.27 "HgN/A
4:30 PM59 °FPassing clouds.8 mph31%30.27 "HgN/A
4:00 PM57 °FBroken clouds.8 mph33%30.27 "HgN/A
3:30 PM57 °FBroken clouds.13 mph36%30.27 "HgN/A
3:00 PM57 °FBroken clouds.10 mph33%30.27 "HgN/A
2:30 PM55 °FMore clouds than sun.6 mph38%30.30 "HgN/A
2:00 PM55 °FMore clouds than sun.8 mph36%30.30 "HgN/A
1:30 PM54 °FMore clouds than sun.13 mph38%30.30 "HgN/A
1:00 PM54 °FMore clouds than sun.8 mph44%30.30 "HgN/A
12:30 PM52 °FMore clouds than sun.6 mph58%30.30 "HgN/A
12:00 PM50 °FMore clouds than sun.6 mph62%30.30 "HgN/A
11:30 AM50 °FMore clouds than sun.3 mph67%30.30 "HgN/A
11:00 AM48 °FMore clouds than sun.1 mph66%30.30 "HgN/A
10:30 AM45 °FFog.3 mph81%30.30 "Hg2 mi
10:00 AM41 °FLight rain. More clouds than sun.6 mph87%30.30 "Hg2 mi
9:30 AM41 °FLight rain. More clouds than sun.3 mph81%30.33 "Hg1 mi
9:00 AM43 °FLight rain. More clouds than sun.No wind76%30.33 "Hg2 mi
8:30 AM39 °FSprinkles. More clouds than sun.3 mph87%30.30 "Hg2 mi
8:00 AM39 °FSprinkles. More clouds than sun.3 mph81%30.30 "Hg2 mi
7:30 AM39 °FSprinkles. More clouds than sun.1 mph81%30.30 "Hg2 mi
7:00 AM37 °FSprinkles. More clouds than sun.3 mph75%30.30 "Hg1 mi
6:30 AM37 °FLight rain. Mostly cloudy.3 mph75%30.30 "Hg1 mi
6:00 AM37 °FLight rain. Overcast.3 mph75%30.30 "Hg1 mi
5:30 AM37 °FLight rain. Overcast.1 mph75%30.27 "Hg1 mi
5:00 AM39 °FLight rain. Overcast.3 mph70%30.27 "Hg2 mi
4:30 AM39 °FLight rain. Overcast.1 mph65%30.27 "Hg2 mi
3:00 AM39 °FHaze.1 mph61%30.27 "Hg2 mi
2:30 AM39 °FHaze.1 mph56%30.27 "Hg2 mi
2:00 AM39 °FHaze.1 mph61%30.27 "Hg2 mi
1:30 AM39 °FHaze.3 mph56%30.27 "Hg2 mi
1:00 AM41 °FHaze.1 mph53%30.27 "Hg2 mi
12:30 AM39 °FHaze.1 mph56%30.27 "Hg2 mi
12:00 AM41 °FHaze.1 mph53%30.27 "Hg2 mi
11:30 PM
Apr 15
41 °FHaze.No wind53%30.24 "Hg2 mi
11:00 PM41 °FHaze.1 mph53%30.24 "Hg2 mi
10:30 PM41 °FHaze.3 mph53%30.27 "Hg2 mi
10:00 PM43 °FHaze.6 mph49%30.27 "Hg2 mi
9:30 PM43 °FHaze.6 mph46%30.27 "Hg2 mi
9:00 PM43 °FHaze.6 mph46%30.24 "Hg2 mi
8:30 PM45 °FHaze.6 mph42%30.24 "Hg2 mi
8:00 PM45 °FHaze.3 mph49%30.24 "Hg2 mi
7:30 PM45 °FHaze.3 mph49%30.24 "Hg2 mi
7:00 PM46 °FHaze.6 mph43%30.24 "Hg2 mi
Weather by CustomWeather, © 2014

See weather overview